Location: Key Biscayne
(25.6930°N, 80.1630°W)
Time: 03:36:23
(UTC-05:00)

OTV 5 (USA 277) - Pass Details

Date: 19 November 2017
Orbit: 404 x 417 km, 43.0° (Epoch: 07 September)

Event Time Altitude Azimuth Distance (km) Brightness Sun altitude
Exits shadow 05:48:41 - 342° (NNW) 1,672 ? -12.1°
Reaches altitude 10° 05:49:35 10° 353° (N) 1,452 ? -11.9°
Maximum altitude 05:51:19 14° 26° (NNE) 1,255 ? -11.5°
Drops below altitude 10° 05:53:03 10° 58° (ENE) 1,450 ? -11.2°
Sets 05:55:58 0° 86° (E) 2,307 ? -10.5°
